Location: Possagno
(45.8500°N, 11.8667°E)
Time: 21:39:47
(UTC+00:00)

Resurs 1-4 Rocket - Pass Details

Date: 28 September 2020
Orbit: 800 x 813 km, 98.6° (Epoch: 27 October)

Event Time Altitude Azimuth Distance (km) Brightness Sun altitude
Rises 00:08:36 0° 21° (NNE) 3,329 6.1 -44.0°
Reaches altitude 10° 00:11:09 10° 30° (NNE) 2,396 5.1 -43.8°
Enters shadow 00:11:53 14° 35° (NE) 2,140 4.8 -43.8°
